Tracking 19832 objects as of 25-Aug-2019
HD Live streaming from Space Station
objects crossing your sky now

THORAD DELTA 1 DEB

Track THORAD DELTA 1 DEB now!
10-day predictions


NORAD ID: 8163
Int'l Code: 1974-089AD
Perigee: 1,226.7 km
Apogee: 1,827.9 km
Inclination: 102.5 °
Period: 116.4 minutes
Semi major axis: 7898 km
RCS: 0.0599 m2 (small)
Launch date: November 15, 1974
Source: United States (US)
Launch site: AIR FORCE WESTERN TEST RANGE (AFWTR)

Note: This is SATELLITE DEBRIS
aabbcc
Your satellite tracking list
Your tracking list is empty




NASA's NSSDC Master Catalog

Two Line Element Set (TLE):
1  8163U 74089AD  19236.77216397 -.00001874  00000-0 -11115-1 0  9991
2  8163 102.5385 165.8697 0380553 259.1469  96.6553 12.36812893  3253
Source of the keplerian elements: AFSPC